Wind_Speed
17 18 18 19 19 20 20 20 21 22 23 25 27 29 31 34 36 37 38 39 38 39 39 39 40 40 39 39 39 38 36 35 34 32 31 30 29 29 28 28 27 26 25 24
16 16 17 17 18 19 19 20 20 22 24 27 29 31 34 36 37 39 40 41 41 41 41 41 42 42 41 41 42 41 40 38 36 35 34 33 32 32 30 28 28 29 29 27
14 14 16 17 18 19 20 21 22 23 25 28 30 32 34 36 37 39 40 41 41 41 42 42 42 42 43 43 43 43 42 41 39 38 37 36 35 35 34 32 32 31 31 29
13 15 17 18 19 19 20 22 23 24 25 26 28 31 31 33 35 37 38 39 40 40 40 41 40 40 41 42 44 44 43 42 41 40 39 38 38 36 36 35 35 33 32 32
12 15 17 19 19 20 20 21 22 23 24 25 27 29 30 30 32 34 36 38 38 38 39 40 39 39 38 37 38 39 40 40 40 39 39 38 38 37 37 37 35 33 33 32
12 14 16 18 18 18 18 19 19 20 21 22 23 25 26 26 28 29 31 33 34 34 35 36 37 36 34 33 32 33 35 35 37 38 38 37 37 36 36 36 35 34 34 33
11 13 15 16 17 17 17 17 17 18 19 20 21 22 24 24 25 26 26 27 28 29 31 31 31 30 29 29 29 29 31 32 33 34 35 35 35 35 35 34 34 33 32 32
12 13 14 15 15 15 15 16 16 16 17 17 18 19 20 22 22 23 23 23 23 23 23 23 23 24 25 25 25 26 27 29 30 31 32 32 32 33 32 31 31 31 31 31
13 13 13 13 14 15 15 16 15 14 15 15 15 17 18 19 20 20 19 18 19 18 15 15 16 17 18 20 21 23 24 25 27 28 29 29 29 29 30 30 30 30 31 30
13 13 13 14 14 15 15 15 14 13 14 14 14 14 14 14 16 16 16 16 14 13 12 11 10 11 12 14 16 18 20 22 24 26 27 27 27 28 28 29 29 29 30 29
14 14 14 14 15 15 15 14 13 13 13 14 14 15 15 15 16 16 16 15 13 14 13 9 7 7 8 9 11 13 15 17 18 20 22 23 23 24 24 25 26 26 25 25
15 15 15 14 14 15 15 14 13 14 15 15 15 15 16 17 18 17 16 15 14 13 12 10 9 7 6 6 6 7 8 10 12 14 15 17 18 19 20 20 19 19 19 19
16 17 16 15 15 16 15 15 14 14 15 16 16 16 17 17 18 19 19 18 17 16 15 13 13 10 7 6 5 3 3 4 5 6 8 10 10 11 12 12 12 12 12 13
17 18 17 17 17 16 16 15 15 16 16 17 18 18 17 17 18 19 19 19 18 18 18 17 15 14 12 10 9 8 7 5 4 3 1 1 1 3 3 4 5 5 6 7
18 18 18 18 17 17 16 15 16 16 17 18 19 19 19 18 17 18 19 19 19 18 18 18 18 17 16 16 15 14 13 12 11 10 8 6 5 4 3 2 2 3 4 4
18 18 19 18 17 16 16 16 16 16 17 17 18 18 19 19 19 19 19 19 19 19 19 19 18 17 16 15 14 14 14 14 13 12 10 9 8 7 7 5 4 4 5 6
18 18 19 19 18 17 16 16 17 16 17 17 17 17 18 18 18 18 18 18 18 18 18 19 19 19 19 18 17 16 16 15 14 13 12 11 10 9 8 8 7 7 7 8
17 18 18 19 19 19 18 17 17 16 16 16 17 17 17 18 17 17 18 18 18 18 18 18 18 18 19 19 19 18 18 17 17 16 15 14 12 11 11 10 10 10 10 10
17 18 19 19 19 19 19 17 17 16 16 16 16 16 17 17 17 18 18 18 18 18 18 18 18 18 18 18 19 19 18 18 18 18 17 17 16 15 14 13 12 12 11 11
16 18 18 19 19 19 18 17 17 16 16 16 16 16 17 17 18 18 18 18 18 18 19 19 19 19 19 19 19 19 19 19 19 18 18 17 17 17 17 16 15 14 13 12
15 16 17 18 18 18 18 17 17 16 16 16 15 16 16 17 18 18 18 18 18 18 19 19 20 20 19 19 19 19 19 19 18 18 18 18 18 18 18 17 17 16 16 15
12 14 16 16 17 17 17 17 17 16 16 15 15 16 16 16 17 17 18 18 18 18 18 18 19 19 19 18 18 18 18 18 18 18 19 19 18 18 19 19 18 18 17 17
10 12 14 15 16 17 17 16 16 15 15 15 15 15 15 15 16 16 17 17 17 17 17 17 17 17 18 18 18 17 17 18 18 18 19 19 19 19 19 20 20 19 19 18
7 9 11 13 14 15 16 16 15 15 14 14 14 14 14 14 14 14 15 16 16 16 16 16 16 17 17 17 17 17 17 17 18 18 18 19 20 20 20 21 21 20 20 19
6 7 8 10 12 13 14 15 14 14 14 13 12 12 12 12 12 12 12 13 13 14 15 15 15 15 15 15 16 16 16 17 17 17 18 19 20 20 21 21 22 22 21 20
6 6 7 8 9 10 12 13 13 13 13 12 11 10 10 10 10 10 10 10 11 11 12 12 13 13 14 14 15 15 16 16 17 17 18 19 19 20 20 21 22 22 23 22
Wind_Direction
265 272 278 282 282 281 281 283 284 286 286 284 282 280 279 278 277 277 276 276 274 274 273 272 270 268 267 265 265 264 263 262 261 260 258 259 262 262 266 268 269 268 268 269
274 279 282 282 284 285 287 288 288 288 287 285 284 282 282 280 279 279 277 277 276 273 272 270 269 268 266 264 263 262 262 260 259 258 258 259 262 262 263 267 269 267 267 266
281 284 285 287 289 291 293 293 291 289 287 285 285 284 284 284 282 280 278 278 278 274 272 269 267 265 263 261 260 260 259 258 256 257 257 258 260 262 263 265 265 267 266 264
290 293 294 294 295 295 295 295 294 292 290 287 287 287 287 285 282 280 279 279 279 276 271 267 265 264 262 260 258 258 257 256 256 255 255 256 258 259 262 263 264 265 267 266
304 302 301 301 301 301 301 300 297 295 293 292 291 290 290 288 283 281 280 280 279 277 272 268 265 264 263 259 257 255 254 254 254 254 254 255 257 259 261 262 265 266 268 267
313 311 308 307 309 309 309 307 305 302 300 297 297 295 297 295 292 287 283 280 280 277 274 269 267 265 261 258 258 253 251 251 253 253 253 254 256 258 260 262 265 266 268 269
320 316 316 316 316 317 316 315 313 311 308 306 306 303 305 303 300 297 292 287 286 284 278 275 271 268 265 260 258 253 251 251 253 253 253 254 256 258 260 262 263 266 268 269
335 333 332 331 329 328 327 323 320 319 318 316 316 313 313 314 312 310 304 298 298 299 289 283 278 272 267 265 260 255 253 252 252 253 253 255 257 259 261 262 264 266 268 270
355 353 352 349 344 341 339 336 334 331 332 330 329 327 325 324 326 325 323 317 313 314 309 297 286 277 268 263 261 257 254 253 253 254 255 256 257 258 260 263 265 267 268 269
12 5 360 352 348 346 344 346 348 349 351 349 346 346 347 344 344 342 344 346 343 339 331 319 304 290 280 272 265 262 259 259 258 257 257 258 258 259 260 263 265 266 268 268
15 9 2 355 352 352 354 359 1 1 4 3 2 5 9 11 7 3 360 2 2 353 354 347 330 318 307 289 275 268 266 265 264 261 258 259 261 263 265 267 268 267 266 266
20 14 8 4 3 4 7 9 11 14 17 16 15 22 26 26 26 25 22 20 17 19 20 17 14 5 343 323 299 277 271 268 264 259 259 260 263 265 267 268 267 265 262 263
22 19 15 15 15 16 16 19 22 26 28 28 30 34 35 35 36 39 39 40 41 40 39 37 36 35 33 25 8 344 305 289 277 264 258 259 263 266 266 266 267 263 262 261
26 24 21 19 19 21 23 27 32 36 37 35 35 37 40 42 42 41 40 43 47 46 47 49 48 49 52 51 54 55 53 55 60 59 68 60 290 274 266 270 270 265 261 258
29 26 23 21 21 25 31 36 40 43 43 42 42 43 45 46 46 46 47 49 50 49 48 50 54 55 55 58 63 66 67 69 73 73 70 64 61 54 44 21 334 311 296 283
29 28 25 24 25 30 37 42 44 45 44 44 44 45 46 47 48 49 52 53 54 54 53 53 56 59 60 62 63 66 67 67 66 65 65 62 59 51 41 30 11 342 311 294
31 30 28 27 30 34 42 43 45 46 45 44 44 44 45 45 46 48 50 52 54 54 54 54 58 60 62 64 67 70 66 64 63 63 61 55 48 40 30 18 2 345 327 313
33 33 33 32 33 37 39 43 45 46 47 45 43 44 45 45 47 50 52 54 56 57 57 59 60 61 63 64 64 63 62 61 60 56 53 49 42 34 24 13 1 349 336 325
33 33 34 34 35 37 40 43 44 46 48 47 46 46 46 48 52 54 55 57 58 58 60 62 62 63 62 61 62 62 60 58 55 52 50 47 42 36 30 21 12 2 352 340
34 34 34 35 36 37 39 42 44 45 49 46 47 48 51 55 57 58 58 59 59 59 60 62 63 63 63 62 62 60 58 56 54 52 48 44 41 37 32 27 20 13 6 356
35 35 35 36 37 38 38 41 43 45 45 46 48 50 54 56 58 58 58 58 59 61 63 64 63 63 62 61 60 58 56 54 51 48 45 42 38 35 32 28 23 19 14 7
32 33 34 34 36 36 36 38 40 43 44 46 48 52 54 57 59 59 59 59 61 63 64 64 63 62 60 59 57 55 52 50 47 44 42 39 36 34 31 28 25 21 17 13
24 29 31 33 34 34 34 36 38 41 43 46 49 51 53 56 57 58 58 60 62 63 62 62 61 59 56 55 53 49 47 45 43 40 38 36 33 31 29 27 24 22 20 18
9 18 25 29 30 31 33 34 37 39 42 45 48 50 53 55 57 59 59 61 61 60 59 59 58 55 52 49 47 44 43 41 40 37 34 32 31 29 28 27 26 25 24 23
349 1 11 21 26 29 31 32 36 38 40 43 47 49 52 54 56 57 57 58 58 57 55 53 52 50 48 46 43 41 40 39 38 36 34 32 30 29 28 28 29 29 29 30
324 339 350 1 12 19 25 29 31 34 36 38 41 44 46 49 50 51 51 51 51 50 48 46 44 43 42 41 41 39 37 36 35 34 33 32 30 30 30 31 32 33 34 36
Height
5901 5902 5900 5899 5898 5896 5895 5893 5892 5890 5887 5886 5883 5881 5879 5877 5875 5873 5872 5870 5869 5869 5868 5868 5867 5867 5867 5866 5867 5868 5869 5870 5871 5872 5874 5874 5875 5876 5876 5876 5876 5876 5877 5877
5899 5898 5897 5895 5892 5891 5889 5888 5886 5884 5881 5878 5876 5873 5871 5869 5866 5864 5862 5860 5859 5858 5857 5857 5856 5856 5856 5856 5856 5857 5858 5860 5861 5863 5865 5866 5867 5867 5868 5868 5868 5869 5869 5870
5896 5894 5892 5890 5888 5886 5884 5882 5880 5878 5875 5871 5868 5866 5863 5860 5857 5855 5852 5849 5848 5846 5845 5844 5844 5844 5844 5844 5844 5845 5847 5849 5851 5853 5856 5857 5858 5859 5859 5859 5860 5860 5861 5862
5892 5890 5888 5886 5884 5881 5879 5876 5873 5871 5868 5865 5862 5858 5855 5852 5848 5845 5842 5838 5836 5834 5832 5832 5831 5832 5832 5833 5833 5834 5836 5838 5840 5843 5845 5848 5849 5850 5851 5851 5851 5852 5852 5853
5889 5887 5884 5881 5879 5876 5874 5870 5867 5864 5861 5858 5854 5851 5848 5844 5839 5836 5832 5828 5825 5823 5821 5820 5820 5820 5820 5820 5821 5823 5825 5827 5830 5832 5835 5837 5840 5842 5842 5843 5843 5843 5844 5844
5886 5883 5880 5877 5874 5871 5868 5865 5861 5858 5854 5851 5847 5844 5839 5835 5831 5827 5823 5819 5815 5812 5810 5809 5808 5809 5809 5810 5811 5813 5816 5818 5820 5822 5825 5828 5830 5832 5834 5835 5836 5836 5836 5836
5884 5881 5877 5873 5869 5866 5863 5860 5857 5852 5848 5845 5841 5837 5833 5828 5823 5819 5815 5811 5807 5803 5801 5799 5799 5799 5800 5802 5803 5805 5808 5810 5812 5814 5816 5819 5822 5824 5825 5827 5827 5828 5828 5828
5880 5877 5874 5870 5866 5862 5859 5856 5853 5849 5844 5840 5836 5831 5828 5822 5817 5812 5808 5804 5800 5797 5794 5792 5791 5792 5793 5795 5796 5798 5800 5802 5804 5806 5809 5811 5813 5815 5817 5819 5820 5820 5820 5821
5877 5874 5871 5867 5864 5860 5856 5852 5849 5845 5840 5836 5832 5828 5823 5817 5812 5808 5803 5799 5795 5792 5789 5787 5786 5787 5787 5789 5790 5792 5793 5795 5797 5799 5802 5804 5806 5808 5810 5811 5812 5812 5813 5813
5876 5873 5870 5866 5862 5858 5854 5850 5846 5842 5838 5834 5830 5825 5821 5816 5811 5806 5801 5797 5792 5789 5786 5784 5783 5783 5783 5784 5785 5786 5788 5789 5791 5793 5795 5797 5799 5801 5802 5804 5804 5804 5805 5805
5876 5873 5869 5865 5861 5856 5852 5848 5844 5840 5836 5832 5828 5826 5819 5814 5810 5805 5800 5796 5793 5790 5787 5784 5783 5782 5781 5781 5782 5783 5784 5785 5787 5789 5790 5792 5793 5794 5795 5796 5797 5797 5797 5798
5876 5872 5868 5865 5860 5855 5851 5847 5844 5840 5836 5832 5828 5827 5819 5815 5810 5806 5802 5798 5794 5791 5788 5785 5783 5782 5781 5781 5781 5781 5782 5783 5784 5785 5786 5788 5789 5790 5790 5791 5791 5791 5791 5792
5876 5873 5869 5865 5862 5856 5851 5847 5844 5840 5837 5833 5829 5828 5821 5816 5812 5808 5804 5801 5797 5794 5791 5788 5786 5784 5783 5782 5781 5781 5781 5782 5783 5783 5784 5785 5786 5786 5787 5787 5787 5787 5787 5787
5876 5872 5870 5866 5861 5856 5852 5848 5845 5841 5838 5834 5831 5827 5823 5819 5815 5812 5808 5804 5801 5798 5795 5792 5790 5787 5785 5784 5783 5783 5783 5782 5783 5783 5784 5785 5785 5785 5785 5785 5785 5785 5785 5785
5877 5873 5869 5865 5861 5857 5854 5850 5846 5843 5840 5837 5833 5829 5826 5823 5819 5816 5812 5808 5805 5802 5800 5797 5794 5792 5790 5789 5788 5787 5786 5786 5785 5785 5786 5786 5786 5786 5785 5785 5785 5784 5784 5783
5878 5874 5870 5867 5863 5859 5855 5852 5849 5845 5842 5839 5836 5833 5830 5826 5823 5819 5816 5813 5810 5807 5805 5802 5799 5797 5795 5794 5793 5792 5790 5790 5789 5789 5788 5788 5787 5787 5786 5785 5784 5784 5783 5782
5879 5876 5872 5869 5865 5861 5858 5854 5851 5848 5845 5842 5839 5837 5832 5829 5826 5823 5820 5817 5814 5812 5809 5807 5805 5803 5801 5799 5797 5796 5795 5794 5793 5792 5791 5790 5789 5788 5787 5785 5784 5783 5781 5780
5881 5878 5874 5870 5868 5863 5862 5856 5853 5850 5848 5845 5842 5839 5836 5833 5830 5827 5824 5821 5819 5816 5814 5812 5810 5808 5806 5804 5802 5800 5799 5797 5796 5795 5794 5792 5791 5789 5788 5786 5784 5782 5780 5778
5883 5880 5876 5872 5869 5866 5863 5859 5856 5853 5850 5848 5845 5842 5839 5836 5833 5831 5828 5825 5823 5821 5819 5816 5814 5812 5810 5808 5806 5805 5803 5801 5800 5798 5796 5795 5793 5791 5788 5786 5783 5781 5778 5776
5884 5881 5878 5875 5871 5868 5866 5862 5858 5856 5853 5851 5848 5845 5842 5840 5838 5836 5832 5830 5827 5825 5823 5821 5818 5816 5815 5813 5811 5809 5807 5805 5803 5801 5799 5797 5795 5792 5790 5787 5784 5781 5778 5775
5886 5883 5880 5877 5874 5871 5868 5864 5861 5860 5858 5853 5851 5848 5846 5843 5841 5839 5836 5834 5831 5829 5827 5825 5823 5821 5819 5817 5816 5813 5811 5809 5807 5805 5803 5800 5797 5794 5792 5788 5785 5781 5778 5775
5887 5885 5882 5879 5876 5875 5869 5866 5864 5862 5858 5856 5853 5851 5849 5846 5844 5842 5840 5838 5835 5833 5832 5830 5828 5826 5824 5822 5820 5818 5816 5813 5811 5808 5806 5803 5800 5797 5794 5790 5786 5782 5779 5775
5888 5886 5883 5881 5880 5875 5872 5869 5866 5863 5861 5858 5856 5854 5852 5849 5847 5845 5843 5841 5839 5838 5836 5834 5832 5830 5828 5826 5824 5822 5819 5817 5814 5811 5809 5806 5802 5799 5795 5792 5788 5783 5779 5775
5888 5886 5884 5881 5879 5876 5873 5870 5868 5865 5862 5860 5858 5856 5854 5852 5851 5849 5847 5845 5843 5842 5840 5838 5836 5834 5832 5830 5828 5825 5823 5820 5817 5814 5811 5808 5805 5801 5798 5794 5790 5785 5781 5777
5887 5885 5883 5881 5879 5877 5874 5872 5869 5867 5864 5862 5860 5858 5856 5855 5853 5852 5850 5848 5847 5845 5843 5841 5839 5837 5835 5833 5831 5828 5826 5823 5820 5817 5814 5811 5807 5804 5800 5796 5792 5787 5783 5779
5886 5885 5883 5881 5880 5878 5876 5873 5871 5868 5866 5864 5862 5860 5858 5857 5855 5854 5852 5851 5849 5847 5846 5844 5842 5840 5838 5836 5834 5831 5829 5826 5823 5820 5817 5814 5810 5806 5803 5799 5795 5791 5786 5782